GLOBALSTAR M062 [-]

Last updated on July 6, 2021, 3:36 p.m. UTC

1 26082U 00008B   21186.85751431 -.00000043  00000-0  39369-3 0  9999
2 26082  51.9866  16.8297 0005776 271.9725 193.3469 12.43376352317301
UTC
Height (km)
Latitude
Longitude
Inclination
Orbital Period
UTC large
Height (km)
Speed (km/s)
/
Latitude / Longitude
Inclination (degrees)
Orbital Period (minutes)
Azimuth
Elevation
Range (km)
Doppler Factor
iOS Compass Heading
iOS Angle